DW1057 Weather Reports


Display with metric or nautical units.
time (UTC)temp
F
wind
direction
speed
MPH
gust
MPH
rain 1hr
in
rain 24hr
in
rain mn
in
humidity
%
barometer
mb
20191206233103 50 225 0.0 0.0 0.00 0.00 0.00 65 1021.2
20191206231554 51 225 0.0 0.0 0.00 0.00 0.00 65 1021.1
20191206230139 51 225 0.0 0.0 0.00 0.00 0.00 64 1020.9
20191206224624 51 225 0.0 0.0 0.00 0.00 0.00 63 1020.6
20191206223107 51 225 0.0 0.0 0.00 0.00 0.00 62 1020.7
20191206221603 51 225 0.0 0.0 0.00 0.00 0.00 61 1020.6
20191206220039 52 225 0.0 0.0 0.00 0.00 0.00 62 1020.5
20191206214609 52 225 0.0 0.0 0.00 0.00 0.00 62 1020.5
20191206213116 52 225 0.0 0.0 0.00 0.00 0.00 63 1020.2
20191206211622 52 225 0.0 0.0 0.00 0.00 0.00 62 1020.1
20191206210100 52 225 0.0 0.0 0.00 0.00 0.00 62 1020.2
20191206204541 52 225 0.0 0.0 0.00 0.00 0.00 60 1020.0
20191206203051 52 225 0.0 0.0 0.00 0.00 0.00 61 1019.5
20191206201607 52 225 0.0 0.0 0.00 0.00 0.00 59 1019.4
20191206200113 53 225 0.0 0.0 0.00 0.00 0.00 59 1019.3
20191206194610 53 225 0.0 0.0 0.00 0.00 0.00 59 1019.4
20191206193055 53 225 0.0 0.0 0.00 0.00 0.00 60 1019.3
20191206191604 53 225 0.0 0.0 0.00 0.00 0.00 59 1019.3
20191206190104 53 225 0.0 0.0 0.00 0.00 0.00 60 1019.2
20191206184625 53 225 0.0 0.0 0.00 0.00 0.00 59 1019.3
20191206183100 53 225 0.0 0.0 0.00 0.00 0.00 59 1019.4
20191206181543 52 225 0.0 0.0 0.00 0.00 0.00 59 1019.5
20191206180026 51 225 0.0 0.0 0.00 0.00 0.00 60 1019.6
20191206174528 51 225 0.0 0.0 0.00 0.00 0.00 60 1019.9
20191206173026 51 225 0.0 0.0 0.00 0.00 0.00 60 1020.3
20191206171509 50 225 0.0 1.0 0.00 0.00 0.00 60 1020.6
20191206170012 50 225 0.0 0.0 0.00 0.00 0.00 60 1020.9
20191206164511 49 225 0.0 0.0 0.00 0.00 0.00 61 1021.3
20191206163009 49 225 0.0 0.0 0.00 0.00 0.00 62 1021.4
20191206161507 49 225 0.0 0.0 0.00 0.00 0.00 61 1021.7
20191206160014 48 225 0.0 0.0 0.00 0.00 0.00 58 1021.6
20191206154507 48 225 0.0 0.0 0.00 0.00 0.00 60 1021.3
20191206153006 48 225 0.0 3.0 0.00 0.00 0.00 60 1021.3
20191206151503 48 53 0.0 0.0 0.00 0.00 0.00 60 1021.4
20191206150002 48 53 0.0 0.0 0.00 0.00 0.00 64 1021.2
20191206144637 48 53 0.0 0.0 0.00 0.00 0.00 60 1021.5
20191206143223 48 53 0.0 0.0 0.00 0.00 0.00 57 1020.8
20191206141706 48 53 0.0 1.0 0.00 0.00 0.00 57 1020.8
20191206140211 48 53 0.0 0.0 0.00 0.00 0.00 58 1021.0
20191206134649 48 53 0.0 0.0 0.00 0.00 0.00 55 1020.8
20191206133216 49 53 0.0 0.0 0.00 0.00 0.00 55 1021.0
20191206131622 49 54 0.0 1.0 0.00 0.00 0.00 52 1020.8
20191206130238 48 53 0.0 0.0 0.00 0.00 0.00 51 1021.1
20191206124652 48 53 0.0 0.0 0.00 0.00 0.00 51 1021.1
20191206123119 48 53 0.0 1.0 0.00 0.00 0.00 50 1021.0
20191206121634 48 54 0.0 1.0 0.00 0.00 0.00 50 1020.7
20191206120233 48 54 0.0 1.0 0.00 0.00 0.00 52 1020.7
20191206114701 49 54 0.0 0.0 0.00 0.00 0.00 49 1020.6
20191206113127 49 54 0.0 1.0 0.00 0.00 0.00 49 1020.6
20191206111643 49 54 0.0 0.0 0.00 0.00 0.00 50 1020.4
20191206110146 49 53 0.0 1.0 0.00 0.00 0.00 48 1020.4
20191206104642 49 54 0.0 0.0 0.00 0.00 0.00 49 1020.6
20191206103131 49 54 0.0 0.0 0.00 0.00 0.00 48 1020.4
20191206101643 49 54 0.0 0.0 0.00 0.00 0.00 51 1020.4
20191206100141 49 53 0.0 0.0 0.00 0.00 0.00 49 1020.3
20191206094629 49 54 0.0 0.0 0.00 0.00 0.00 49 1020.5
20191206093102 49 54 0.0 0.0 0.00 0.00 0.00 49 1020.1
20191206091655 49 54 0.0 0.0 0.00 0.00 0.00 48 1020.6
20191206090101 49 54 0.0 0.0 0.00 0.00 0.00 47 1020.6
20191206084557 49 54 0.0 0.0 0.00 0.00 0.00 48 1020.4
20191206083134 50 54 0.0 0.0 0.00 0.00 0.00 47 1020.6
20191206081557 50 53 0.0 0.0 0.00 0.00 0.00 47 1020.6
20191206080110 51 54 0.0 0.0 0.00 0.00 0.00 46 1020.7
20191206074545 51 54 0.0 0.0 0.00 0.00 0.00 45 1020.6
20191206073048 51 54 0.0 0.0 0.00 0.00 0.00 44 1020.8
20191206071609 51 54 0.0 0.0 0.00 0.00 0.00 43 1020.8
20191206070057 51 54 0.0 0.0 0.00 0.00 0.00 43 1020.8
20191206064554 51 54 0.0 0.0 0.00 0.00 0.00 42 1020.8
20191206063040 51 54 0.0 0.0 0.00 0.00 0.00 44 1020.7
20191206061531 51 54 0.0 1.0 0.00 0.00 0.00 42 1020.9
20191206060100 51 54 0.0 0.0 0.00 0.00 0.00 43 1020.9
20191206054559 51 54 0.0 2.0 0.00 0.00 0.00 46 1020.8
20191206053033 51 76 0.0 1.0 0.00 0.00 0.00 50 1020.9
20191206051532 51 76 0.0 0.0 0.00 0.00 0.00 45 1020.7
20191206050049 51 76 0.0 0.0 0.00 0.00 0.00 43 1020.8
20191206044522 51 76 0.0 0.0 0.00 0.00 0.00 43 1021.0
20191206043030 52 76 0.0 0.0 0.00 0.00 0.00 42 1020.8
20191206041547 51 84 0.0 1.0 0.00 0.00 0.00 42 1020.8
20191206040045 51 84 0.0 0.0 0.00 0.00 0.00 40 1021.0
20191206034634 51 84 0.0 0.0 0.00 0.00 0.00 40 1021.1
20191206033020 51 84 0.0 0.0 0.00 0.00 0.00 40 1021.1
20191206031541 51 84 0.0 0.0 0.00 0.00 0.00 40 1021.1
20191206030107 51 84 0.0 0.0 0.00 0.00 0.00 40 1021.1
20191206024519 51 84 0.0 1.0 0.00 0.00 0.00 41 1021.0
20191206023018 50 135 0.0 1.0 0.00 0.00 0.00 42 1021.2
20191206021516 51 300 0.0 0.0 0.00 0.00 0.00 43 1021.1
20191206020019 50 300 0.0 0.0 0.00 0.00 0.00 43 1021.0
20191206014537 50 300 0.0 0.0 0.00 0.00 0.00 43 1020.9
20191206013013 50 300 0.0 1.0 0.00 0.00 0.00 42 1020.8
20191206011545 50 300 0.0 0.0 0.00 0.00 0.00 41 1020.9
20191206010053 50 300 0.0 0.0 0.00 0.00 0.00 41 1020.8
20191206004515 50 300 0.0 0.0 0.00 0.00 0.00 41 1020.7
20191206003012 50 300 0.0 0.0 0.00 0.00 0.00 39 1020.7
20191206001512 50 300 0.0 0.0 0.00 0.00 0.00 40 1020.6
20191206000019 51 300 0.0 0.0 0.00 0.00 0.00 40 1020.5
20191205234546 51 300 0.0 0.0 0.00 0.00 0.00 39 1020.4